Regional Weather Roundup
Issued by NWS

Home | Current Version | Previous Version | Graphics & Text | Print | Product List | Glossary On
Versions: 1 2 3 4 5 6 7 8 9 10 11 12 13 14 15 16 17 18 19 20 21 22 23 24 25 26 27 28 29 30 31 32 33 34 35 36 37 38 39 40 41 42 43 44 45 46 47 48 49 50
000
ASUS45 KTFX 201219
RWRMT
MONTANA HOURLY WEATHER ROUNDUP
NATIONAL WEATHER SERVICE GREAT FALLS MT
519 AM MST SAT DEC 20 2014

NOTE: "FAIR" INDICATES FEW OR NO CLOUDS BELOW 12000 FEET WITH NO
SIGNIFICANT WEATHER AND/OR OBSTRUCTIONS TO VISIBILITY.

* THESE STATIONS ARE NOT UNDER NWS QUALITY CONTROL. THEY DO NOT
   REPORT WEATHER SUCH AS PRECIPITATION OR FOG.

MTZ001>007-043-201300-
WEST OF THE DIVIDE
CITY           SKY/WX    TMP DP  RH WIND       PRES   REMARKS
KALISPELL      CLOUDY    30  30 100 CALM      29.97S
MISSOULA       FOG       25  25 100 CALM      30.00F VSB M1/4
BUTTE          MOCLDY    21  16  81 CALM      29.95F
MULLAN PASS    CLOUDY    25  21  85 S7        29.87F WCI  17
* ESSEX        N/A       31  31 100 N/A        N/A
* EUREKA APT   MOCLDY    37  28  70 SE5       29.94F WCI  33
* HAMILTON APT MOCLDY    32  25  75 SW6       29.97F WCI  26
* LIBBY APT    CLOUDY    30  28  92 CALM       N/A   VSB M1/4
* LINCOLN      N/A       29  23  78 S3G10      N/A
* LOOKOUT PASS N/A       28  28 100 SW1        N/A
* POLSON       N/A       29  29 100 N/A        N/A
* RONAN APT    PTCLDY    32  30  92 N/A        N/A
* SEELEY LAKE  N/A       24  23  96 N/A        N/A
* THOMP F APT  CLOUDY    25  24  96 E2G8       N/A
* YAAK HILL    N/A       34  32  92 N/A        N/A
$$

MTZ008-052>055-201300-
SOUTHWEST MONTANA
CITY           SKY/WX    TMP DP  RH WIND       PRES   REMARKS
BOZEMAN        PTCLDY    25  21  85 SE6       29.96S WCI  18
DILLON         MOCLDY    27  19  72 S8        29.96S WCI  19
* W YELLOWSTON CLOUDY    26  25  96 S4         N/A
* THREE FORKS  MOCLDY    28  25  89 N/A        N/A
* BOULDER HILL N/A       22  16  78 W3         N/A
* MONIDA PASS  N/A       24  24 100 S6         N/A   WCI  17
* RAYNOLDS PAS N/A       23   5  46 SE12       N/A   WCI  11
* WHITEHALL    N/A       30  20  66 SW4G12     N/A
* WISE RIVER   N/A       23  20  88 SE2        N/A
$$

MTZ009>010-012-014-046-048-049-054-201300-
EAST SLOPES AND CENTRAL MONTANA
CITY           SKY/WX    TMP DP  RH WIND       PRES   REMARKS
CUT BANK       CLEAR     32  21  64 W18       29.80R WCI  21
GREAT FALLS    CLEAR     32  21  64 SW15      29.85S WCI  22
HELENA         MOCLDY    34  21  59 SW9       29.94R WCI  27
MALMSTROM AFB  CLEAR     34  23  64 SW20      29.87F WCI  23
* CONRAD       CLEAR     25  19  78 SW5        N/A   WCI  19
* DEARBORN     N/A       39  21  48 SE9G18     N/A   WCI  33
* EAST GLACIER N/A       31  19  61 W15G23     N/A   WCI  20
* MONARCH      N/A       31  13  47 SW10G18    N/A   WCI  22
* PENDROY      N/A       31  17  56 W14G24     N/A   WCI  21
* SWEET GRASS  N/A       32  20  61 W18G26     N/A   WCI  21
* WHITE SULPH  N/A       30  24  78 S12        N/A   WCI  20
$$

MTZ011-013-016-021-035-040-045-047-050-051-201300-
NORTH CENTRAL MONTANA
CITY           SKY/WX    TMP DP  RH WIND       PRES   REMARKS
HAVRE          CLOUDY    36  28  73 SW18      29.81S WCI  26
LEWISTOWN      CLEAR     28  19  69 CALM      29.85F
* N BAR RANCH  CLEAR     34  14  44 W8        29.85S WCI  27
* CHINOOK      MOCLDY    37  28  70 W7        29.81S WCI  32
* CHESTER      N/A       28  22  78 W6         N/A   WCI  21
* DENTON       N/A       32  20  61 S9         N/A   WCI  24
* GEYSER       N/A       28  17  63 W10        N/A   WCI  19
* JUDITH GAP   N/A       30  21  69 W9G16      N/A   WCI  22
* LOMA         N/A       37  24  59 SW12G17    N/A   WCI  29
$$

MTZ017>020-022>027-061-062-201300-
NORTHEAST MONTANA
CITY           SKY/WX    TMP DP  RH WIND       PRES   REMARKS
GLASGOW        MOCLDY    25  21  85 SE6       29.81S WCI  18
GLENDIVE       MOCLDY    30  25  82 SW8       29.84S WCI  22
JORDAN         MOCLDY    30  27  89 W7        29.84S WCI  23
SIDNEY         MOCLDY    25  21  85 CALM      29.85F
WOLF POINT     MOCLDY    25  19  78 CALM      29.84S
* BEAVER HILL  N/A       34  25  70 S14        N/A   WCI  24
* CIRCLE       N/A       32  27  82 W3         N/A
* LINDSAY DVD  N/A       35  27  73 W12        N/A   WCI  27
* NAVAJO       N/A       30  27  89 SW9        N/A   WCI  22
* PLENTYWOOD A MOCLDY    21  21 100 CALM      29.81S
* POPLAR APT   CLOUDY    23  21  92 NE3       29.83S
* SACO         N/A       27  27 100 SE4        N/A
$$

MTZ028>042-056>058-201300-
SOUTHCENTRAL AND SOUTHEAST MONTANA
CITY           SKY/WX    TMP DP  RH WIND       PRES   REMARKS
BAKER          CLOUDY    34  27  76 W7        29.85S WCI  28
BILLINGS       MOCLDY    34  21  59 SW16      29.90F WCI  24
LIVINGSTON     PTCLDY    36  25  64 W10       29.91S WCI  29
MILES CITY     CLEAR     28  23  81 W8        29.86S WCI  20
* FORSYTH APT  PTCLDY    36  27  70 W6        29.87S WCI  31
* LAUREL APT   CLEAR     30  16  56 N/A        N/A
* ROUNDUP APT  PTCLDY    39  21  48 SW10G23    N/A   WCI  32
* HYSHAM       N/A       34  20  57 W4         N/A
* LAME DEER    N/A       35  22  59 W10        N/A   WCI  27
* REED POINT   N/A       27  25  92 SW4        N/A
* ROSCOE HILL  N/A       33   9  36 E9         N/A   WCI  25
$$

REGIONAL REPORTS...DAKOTAS
CITY           SKY/WX    TMP DP  RH WIND       PRES   REMARKS
WILLISTON      CLOUDY    16  14  92 CALM      29.84F
DICKINSON      CLOUDY    28  25  89 S6        29.82F WCI  21
BEACH          CLOUDY    30  28  92 E3        29.84S
CROSBY         MOCLDY    18  18 100 E7        29.85F WCI   9
TIOGA          FOG       14  14 100 E5        29.87F WCI   6
WATFORD CITY   CLOUDY    18  18 100 CALM      29.83F
BISMARCK       FOG       16  16 100 E6        29.94S VSB 3/4  WCI   7
GRAND FORKS    FOG       28  27  96 S6        29.99F WCI  21
FARGO          FOG       30  27  89 S10       30.02S WCI  21
BUFFALO SD     CLOUDY    34  23  64 SW7       29.79F WCI  28
RAPID CITY     MOCLDY    34  21  59 NW6       29.88S WCI  29
$$

REGIONAL REPORTS...WYOMING/IDAHO/WASHINGTON
CITY           SKY/WX    TMP DP  RH WIND       PRES   REMARKS
GILLETTE       CLOUDY    34  25  70 CALM      29.91S
SHERIDAN       MOCLDY    27  19  72 SW3       29.90S
CODY           PTCLDY    39  21  48 SW16G26   29.90S WCI  30
YELLOWSTONE LA MOCLDY    25  19  78 VRB6      30.01S WCI  18
SALMON         CLOUDY    27  25  92 CALM      30.01F VSB 1/2
MULLAN PASS    CLOUDY    25  21  85 S7        29.87S WCI  17
SAND POINT     FOG       34  34 100 CALM      29.96F
SPOKANE        CLOUDY    36  34  92 E3        29.92F
$$

REGIONAL REPORTS...ALBERTA
CITY           SKY/WX    TMP DP  RH WIND       PRES   REMARKS
CALGARY        N/A       34  14  44 SW5       29.72R WCI  29
LETHBRIDGE     CLEAR     36  23  59 W24G36    29.77S WCI  24
MEDICINE HAT   PTCLDY    36  28  73 W21G28    29.73S WCI  25
EDMONTON       MOCLDY    12   9  88 S5        29.70R WCI   4
WATERTON GATE  N/A       34  18  52 SW20G35    N/A   WCI  23
CARDSTON       N/A       32  21  64 SW7        N/A   WCI  25
MILK RIVER     N/A       28  21  75 W15        N/A   WCI  16
$$

REGIONAL REPORTS...SASKATCHEWAN
CITY           SKY/WX    TMP DP  RH WIND       PRES   REMARKS
SWIFT CURRENT  CLOUDY    36  30  79 SW14      29.68S WCI  27
REGINA         FOG       19  18  96 SE15      29.79F VSB 1 1/2 WCI   5
VAL MARIE      N/A       32  32 100 W1         N/A
ASSINIBOIA     N/A       34  32  92 SW10       N/A   WCI  26
CORONACH       N/A       30  28  92 E3         N/A

$$



USA.gov is the U.S. government's official web portal to all federal, state and local government web resources and services.